Terug naar catalogus

INTERCOSMOS 25

ActiefWetenschapPO
NORAD 21819·PAYLOAD·🇷🇺 Russia

Gelanceerd Dec 18, 1991 vanaf Plesetsk Cosmodrome

Loading…

Volgende Passages (komende 24 uur)

TLE

VersSource: Space-Track

Epoch: Sep 14, 2026, 13:59 UTC

1 21819U 91086A   26257.58304946  .00001296  00000-0  24662-3 0  9997
2 21819  82.6066 195.7358 1485500  69.5645 305.8370 12.12333724519578

Volg INTERCOSMOS 25 in realtime met AllMySat

Download on the App Store